Showing default

COSMOS 2530, 43751

Orbit data source: Space-Track

COSMOS 2530, 43751 is a payload satellite owned by VVKO VKS (CIS) in LEO that was launched on Fri, 30 Nov 2018 UTC via an ROKOT launch vehicle from the Plesetsk Missile And Space Complex (PKMTR). Payload-class satellites include a variety of spacecraft equipped with specific instruments for various scientific and technological missions. These include communications satellites like Starlink; space stations such as the ISS; scientific satellites like the Hubble; Earth observation satellites from companies like Planet Labs, Umbra, and HawkEye 360; GPS; miniature CubeSats for education and research; and military/defense satellites.

Loading next visibility...
Identifier
43751, 2018-097A
Orbit
LEO
Country
Flag of CISCIS
Related business
Manufacturer
Resehetnev ISS
Mission
Operational Defense Communications
Bus & Motor
STRELA-3M, Unknown motor
Mass
280 kg wet, 280 kg dry
Launch date (UTC)
2018-11-30 (7 years ago)
Launch vehicle
ROKOT
Launch site
Plesetsk Missile And Space Complex (PKMTR)
Object type
Payload
Rocket body
Debris
Shape & HBR
Cyl + 1 Ant, 3.5 m
Radar Cross Section
1.583 m², Large (>1 m²)

Expand to show TLE details & history
Last TLE update: 4 hours ago

TLE from 4 hours ago
0 COSMOS 2530
1 43751U 18097A   26125.87407322 -.00000111  00000-0 -87269-3 0  9994
2 43751  82.5144 248.5382 0020679 127.4333 232.8632 12.42879683337037
Epoch: 2026-05-05T20:58Z
TLE epoch observation values (Epoch: 2026-05-05T20:58:39.926Z)
Latitude
-0.00003°
Longitude
70.12918°
Altitude
1,506.971 km
Speed
7.107 km/s
True Right ascension
16h 34m 09s
True Declination
0° 00' 00"
Sunlit
Object was in full shadow at epoch
Visualization orbit readout
Latitude
Unknown
Longitude
Unknown
Altitude
Unknown
Speed
Unknown
Apparent Right ascension
Unknown
Apparent Declination
Unknown
Sunlit
N/A
Visualization observer readout
Local Sidereal Time
08:35:18
Azimuth
Unknown
Elevation
Unknown
Doppler factor
Unknown
Orbital elements
Apogee altitude
1,508.044 km
Perigee altitude
1,475.496 km
Semi-major axis
7,869.907 km
Eccentricity
0.00207
Inclination
82.5144°
RAAN
248.5382°
Arg. of periapsis
127.4333°
True anomaly
232.67459°
Mean anomaly
232.8632°
Eccentric anomaly
232.76886°
Mean motion
3.10877 °/min
Orbital period
115.8 mins
BSTAR
-0.00087269
Loading maneuver chart data...
Computing Atmospheric mass density...
Loading historical data...
Loading historical data...
Loading historical data...
Loading historical data...
Loading historical data...
Loading historical data...
Loading historical data...
Other satellites on launch #97 in the year 2018 (2018-11-30 UTC)

Documentation

Showing up to 5 results
|